Location: Cran-Gévrier
(45.9039°N, 6.1012°E)
Time: 12:12:16
(UTC+00:00)

Cosmos 1356 Rocket - Pass Details

Date: 09 February 2023
Orbit: 539 x 590 km, 81.2° (Epoch: 21 March)

Event Time Altitude Azimuth Distance (km) Brightness Sun altitude
Rises 18:50:22 0° 194° (SSW) 2,687 7.0 -20.9°
Reaches altitude 10° 18:52:31 10° 196° (SSW) 1,797 6.1 -21.3°
Maximum altitude 18:56:28 74° 282° (WNW) 567 3.4 -22.0°
Enters shadow 18:59:25 17° 5° (N) 1,399 5.3 -22.5°
